Location: Pallagorio
(39.3000°N, 16.9000°E)
Time: 18:22:18
(UTC+00:00)

Cosmos 1825 Rocket - Pass Details

Date: 24 January 2021
Orbit: 604 x 630 km, 82.5° (Epoch: 03 March)

Event Time Altitude Azimuth Distance (km) Brightness Sun altitude
Rises 18:10:47 0° 194° (SSW) 2,859 7.2 -24.5°
Reaches altitude 10° 18:13:00 10° 198° (SSW) 1,963 6.4 -24.9°
Maximum altitude 18:17:18 61° 279° (W) 703 4.0 -25.8°
Enters shadow 18:18:32 42° 337° (NNW) 881 4.4 -26.0°
